Regional Weather Roundup
Issued by NWS

Home | Current Version | Previous Version | Graphics & Text | Print | Product List | Glossary On
Versions: 1 2 3 4 5 6 7 8 9 10 11 12 13 14 15 16 17 18 19 20 21 22 23 24 25 26 27 28 29 30 31 32 33 34 35 36 37 38 39 40 41 42 43 44 45 46 47 48 49 50
000
ASUS45 KSLC 092010
RWRUT

UTAH REGIONAL WEATHER ROUNDUP
NATIONAL WEATHER SERVICE SALT LAKE CITY UT
100 PM MST TUE FEB 09 2016

UTZ001>011-023>025-092100-

NORTHERN UTAH

CITY           SKY/WX    TMP DP  RH WIND       PRES   REMARKS
BRIGHAM CITY   SUNNY     27  25  93 CALM      30.58F
HILL AFB       SUNNY     39  22  51 E1        30.55F
LOGAN          MOSUNNY   18  15  88 W3        30.59F FOG
OGDEN          SUNNY     33  25  72 NW6       30.56F WCI  28
PROVO AIRPORT  SUNNY     23  19  86 W3        30.57F
SALT LAKE CITY SUNNY     38  29  70 NW7       30.56F HAZE    WCI  33
VERNAL         CLOUDY    27  16  63 E5        30.52F WCI  22
WENDOVER       CLOUDY    34  28  80 NE5       30.57F WCI  30
HEBER CITY     SUNNY     30  19  64 CALM      30.51F
WEST JORDAN    SUNNY     36  27  69 CALM      30.56F

$$

UTZ012>022-026-027-092100-

SOUTHERN/CENTRAL UTAH

CITY           SKY/WX    TMP DP  RH WIND       PRES   REMARKS
BLANDING       SUNNY     44  26  48 S3        30.49F
BRYCE CANYON   SUNNY     38  23  55 NE7       30.50F WCI  33
CEDAR CITY     SUNNY     39  23  52 CALM      30.48F
DELTA          MOSUNNY   20  19  96 CALM      30.56F
HANKSVILLE     SUNNY     37  28  70 CALM      30.52F
MILFORD        SUNNY     26  19  74 N3        30.53F
MOAB/CYNLANDS  SUNNY     31  25  78 NW9       30.49F WCI  23
PRICE          SUNNY     38  21  50 S3        30.48F
ST GEORGE      CLEAR     55  27  33 NW3       30.42F
KANAB          SUNNY     63  23  22 E13       30.43F

$$

REGIONAL REPORTS     COLORADO/ARIZONA

CITY           SKY/WX    TMP DP  RH WIND       PRES   REMARKS
CRAIG, CO      MIX PCPN  21  15  78 SW5       30.50F WCI  15
GRAND JUNCTION SUNNY     37  25  61 E7        30.48F WCI  32
RIFLE          SUNNY     36  19  50 CALM      30.49F
MONTROSE       SUNNY     40  19  43 CALM      30.50F
CORTEZ         SUNNY     41  28  60 S8        30.40F
PAGE, AZ       SUNNY     47  28  47 E6        30.46F
GRAND CANYON   SUNNY     55  13  18 NE16      30.46F
KINGMAN        SUNNY     66  24  20 N15       30.33F
FLAGSTAFF      SUNNY     52  17  25 E10       30.43F

$$

REGIONAL REPORTS    NEVADA/IDAHO/WYOMING

CITY           SKY/WX    TMP DP  RH WIND       PRES   REMARKS
LAS VEGAS, NV  SUNNY     65  25  22 CALM      30.32F
ELY            SUNNY     31  22  69 S9        30.52F WCI  23
ELKO           SUNNY     24  16  71 E7        30.55F WCI  16
POCATELLO, ID  CLOUDY    27  24  89 NE7       30.57F WCI  19
BURLEY         PTSUNNY   31  27  85 NE12      30.52F WCI  22
EVANSTON, WY   CLOUDY    32  22  66 SW5       30.50F WCI  27
ROCK SPRINGS   SUNNY     37  27  67 SW20      30.44F WCI  27
KEMMERER       CLOUDY    32  27  80 W14       30.48F WCI  22

$$



USA.gov is the U.S. government's official web portal to all federal, state and local government web resources and services.